AIC4217 VABB-OMDB

Flight info

Callsign AIC4217
Flight time N/A
Altitude 38000
Route RAXET2A SAKUN V2 SUGID DCT VUSET A454 PASOV B540 KUPMA/N0472F240 B540 MIVEK P574 IMPED
Aircraft B77W/H-SDE1E2E3FGHIJ2J3J4J5M1RWXY/LB1D1

Departure

Time 2026-05-06 15:29
Airport Chhatrapati Shivaji Maharaj International Airport (VABB)

Arrival

Time N/A
Airport Dubai International Airport (OMDB)
Time Latitude Longitude Altitude Speed Heading
2026-05-06 15:15 19.09458 72.87586 48 ft 0 kts 31°
2026-05-06 15:21 19.09446 72.87579 54 ft 2 kts 31°
2026-05-06 15:21 19.09432 72.87570 49 ft 2 kts 31°
2026-05-06 15:21 19.09418 72.87561 51 ft 2 kts 31°
2026-05-06 15:22 19.09404 72.87552 49 ft 2 kts 31°
2026-05-06 15:22 19.09392 72.87541 46 ft 2 kts 69°
2026-05-06 15:22 19.09391 72.87524 48 ft 2 kts 110°
2026-05-06 15:22 19.09397 72.87508 46 ft 2 kts 112°
2026-05-06 15:23 19.09400 72.87503 46 ft 0 kts 130°
2026-05-06 15:24 19.09385 72.87522 46 ft 10 kts 130°
2026-05-06 15:24 19.09322 72.87602 50 ft 15 kts 130°
2026-05-06 15:24 19.09265 72.87664 50 ft 11 kts 151°
2026-05-06 15:24 19.09185 72.87676 51 ft 12 kts 170°
2026-05-06 15:25 19.09144 72.87743 51 ft 12 kts 92°
2026-05-06 15:25 19.09090 72.87809 48 ft 13 kts 148°
2026-05-06 15:25 19.09059 72.87896 49 ft 13 kts 92°
2026-05-06 15:25 19.09058 72.87993 48 ft 11 kts 89°
2026-05-06 15:26 19.09031 72.88060 49 ft 11 kts 156°
2026-05-06 15:26 19.08952 72.88050 46 ft 12 kts 188°
2026-05-06 15:26 19.08884 72.88005 47 ft 13 kts 256°
2026-05-06 15:26 19.08887 72.87956 49 ft 0 kts 274°
2026-05-06 15:27 19.08887 72.87954 50 ft 0 kts 274°
2026-05-06 15:27 19.08887 72.87951 52 ft 1 kts 274°
2026-05-06 15:27 19.08887 72.87946 52 ft 1 kts 272°
2026-05-06 15:27 19.08887 72.87937 52 ft 1 kts 272°
2026-05-06 15:28 19.08887 72.87930 52 ft 7 kts 270°
2026-05-06 15:28 19.08884 72.87596 47 ft 89 kts 269°
2026-05-06 15:28 19.08871 72.86651 51 ft 166 kts 271°
2026-05-06 15:28 19.08848 72.85248 308 ft 205 kts 270°
2026-05-06 15:29 19.08786 72.83655 984 ft 222 kts 270°
2026-05-06 15:29 19.08715 72.81990 1751 ft 245 kts 270°
2026-05-06 15:29 19.08719 72.80105 2491 ft 263 kts 273°
2026-05-06 15:29 19.08799 72.78144 3479 ft 270 kts 278°
2026-05-06 15:30 19.09061 72.76167 4586 ft 274 kts 281°
2026-05-06 15:30 19.09373 72.74169 5672 ft 277 kts 281°
2026-05-06 15:30 19.09694 72.72150 6752 ft 280 kts 279°
2026-05-06 15:30 19.10014 72.70103 7781 ft 284 kts 279°
2026-05-06 15:31 19.10333 72.68021 8814 ft 289 kts 278°
2026-05-06 15:31 19.10652 72.65902 9812 ft 294 kts 278°
2026-05-06 15:31 19.10974 72.63731 10576 ft 308 kts 278°
2026-05-06 15:32 19.11693 72.58799 11092 ft 370 kts 278°
2026-05-06 15:32 19.12091 72.56043 11683 ft 386 kts 278°
2026-05-06 15:32 19.12500 72.53203 12529 ft 394 kts 278°
2026-05-06 15:32 19.12914 72.50318 13462 ft 399 kts 278°
2026-05-06 15:33 19.13331 72.47407 14341 ft 403 kts 279°
2026-05-06 15:33 19.13751 72.44465 15281 ft 405 kts 279°
2026-05-06 15:33 19.14170 72.41520 16155 ft 407 kts 279°
2026-05-06 15:33 19.14594 72.38543 17048 ft 410 kts 279°
2026-05-06 15:34 19.15020 72.35543 17812 ft 416 kts 279°
2026-05-06 15:34 19.15450 72.32507 18583 ft 418 kts 279°
2026-05-06 15:34 19.15882 72.29459 19281 ft 421 kts 279°
2026-05-06 15:34 19.16170 72.27422 19713 ft 424 kts 279°
2026-05-06 15:35 19.16609 72.24320 20389 ft 428 kts 279°
2026-05-06 15:35 19.17049 72.21204 21086 ft 430 kts 279°
2026-05-06 15:35 19.17491 72.18066 21778 ft 433 kts 279°
2026-05-06 15:35 19.17935 72.14911 22432 ft 435 kts 279°
2026-05-06 15:36 19.18383 72.11731 23062 ft 439 kts 279°
2026-05-06 15:36 19.18833 72.08525 23608 ft 442 kts 279°
2026-05-06 15:36 19.19287 72.05292 24070 ft 446 kts 279°
2026-05-06 15:36 19.19743 72.02033 24517 ft 450 kts 279°
2026-05-06 15:37 19.20204 71.98741 24967 ft 454 kts 279°
2026-05-06 15:37 19.20668 71.95422 25415 ft 458 kts 279°
2026-05-06 15:37 19.21134 71.92082 25866 ft 461 kts 279°
2026-05-06 15:37 19.21603 71.88709 26294 ft 465 kts 279°
2026-05-06 15:38 19.22075 71.85317 26725 ft 468 kts 279°
2026-05-06 15:38 19.22551 71.81892 27139 ft 472 kts 279°
2026-05-06 15:38 19.23030 71.78445 27549 ft 475 kts 279°
2026-05-06 15:38 19.23510 71.74976 27946 ft 479 kts 279°
2026-05-06 15:39 19.23994 71.71480 28326 ft 482 kts 279°
2026-05-06 15:39 19.24480 71.67958 28689 ft 485 kts 279°
2026-05-06 15:39 19.24969 71.64416 29037 ft 488 kts 279°
2026-05-06 15:39 19.25453 71.60902 29366 ft 491 kts 279°
2026-05-06 15:40 19.25947 71.57315 29692 ft 494 kts 279°
2026-05-06 15:40 19.26441 71.53711 30002 ft 496 kts 279°
2026-05-06 15:40 19.26935 71.50106 30347 ft 495 kts 279°
2026-05-06 15:40 19.27429 71.46496 30767 ft 494 kts 279°
2026-05-06 15:41 19.27920 71.42906 31194 ft 492 kts 279°
2026-05-06 15:41 19.28407 71.39334 31630 ft 491 kts 279°
2026-05-06 15:41 19.28894 71.35762 32053 ft 490 kts 279°
2026-05-06 15:41 19.29381 71.32185 32467 ft 489 kts 279°
2026-05-06 15:42 19.29865 71.28624 32889 ft 488 kts 279°
2026-05-06 15:42 19.30347 71.25072 33294 ft 488 kts 279°
2026-05-06 15:42 19.30830 71.21513 33699 ft 487 kts 278°
2026-05-06 15:42 19.31310 71.17968 34071 ft 486 kts 278°
2026-05-06 15:43 19.31788 71.14429 34469 ft 484 kts 278°
2026-05-06 15:43 19.32263 71.10909 34864 ft 483 kts 278°
2026-05-06 15:43 19.32736 71.07393 35228 ft 482 kts 278°
2026-05-06 15:43 19.33208 71.03888 35606 ft 480 kts 278°
2026-05-06 15:44 19.33678 71.00388 35976 ft 479 kts 278°
2026-05-06 15:44 19.34146 70.96900 36332 ft 478 kts 278°
2026-05-06 15:44 19.34613 70.93414 36680 ft 477 kts 278°
2026-05-06 15:44 19.35078 70.89937 37030 ft 476 kts 278°
2026-05-06 15:45 19.35541 70.86468 37387 ft 475 kts 278°
2026-05-06 15:45 19.36002 70.83009 37732 ft 475 kts 278°
2026-05-06 15:45 19.36930 70.76036 37811 ft 480 kts 278°
2026-05-06 15:46 19.37854 70.69072 37801 ft 474 kts 278°
2026-05-06 15:46 19.38764 70.62188 37811 ft 471 kts 278°
2026-05-06 15:47 19.39669 70.55327 37819 ft 470 kts 278°
2026-05-06 15:47 19.40572 70.48462 37817 ft 471 kts 278°
2026-05-06 15:48 19.41473 70.41582 37821 ft 472 kts 278°
2026-05-06 15:48 19.42374 70.34694 37818 ft 473 kts 278°
2026-05-06 15:49 19.43274 70.27783 37817 ft 474 kts 278°
2026-05-06 15:49 19.44174 70.20854 37817 ft 475 kts 278°
2026-05-06 15:50 19.45073 70.13914 37819 ft 476 kts 278°
2026-05-06 15:50 19.45970 70.06968 37822 ft 476 kts 278°
2026-05-06 15:51 19.46864 70.00019 37821 ft 476 kts 278°
2026-05-06 15:51 19.47750 69.93118 37824 ft 476 kts 278°
2026-05-06 15:52 19.48638 69.86174 37826 ft 475 kts 278°
2026-05-06 15:52 19.49523 69.79237 37827 ft 475 kts 278°
2026-05-06 15:53 19.50405 69.72297 37823 ft 475 kts 278°
2026-05-06 15:53 19.51284 69.65361 37827 ft 475 kts 278°
2026-05-06 15:54 19.52161 69.58423 37825 ft 475 kts 278°
2026-05-06 15:54 19.53034 69.51491 37827 ft 475 kts 278°
2026-05-06 15:55 19.53906 69.44553 37828 ft 475 kts 278°
2026-05-06 15:55 19.54921 69.37639 37828 ft 475 kts 284°
2026-05-06 15:56 19.56960 69.30993 37831 ft 475 kts 293°
2026-05-06 15:56 19.59849 69.24691 37832 ft 475 kts 296°
2026-05-06 15:57 19.62855 69.18439 37827 ft 476 kts 296°
2026-05-06 15:57 19.65843 69.12174 37828 ft 476 kts 296°
2026-05-06 15:58 19.68806 69.05894 37826 ft 476 kts 296°
2026-05-06 15:58 19.71757 68.99604 37831 ft 476 kts 296°
2026-05-06 15:59 19.74706 68.93307 37829 ft 476 kts 296°
2026-05-06 15:59 19.77652 68.87014 37830 ft 476 kts 296°
2026-05-06 16:00 19.80599 68.80710 37828 ft 476 kts 296°
2026-05-06 16:00 19.83522 68.74455 37829 ft 476 kts 296°
2026-05-06 16:01 19.86464 68.68150 37833 ft 476 kts 296°
2026-05-06 16:01 19.89399 68.61854 37835 ft 476 kts 296°
2026-05-06 16:02 19.92334 68.55551 37836 ft 475 kts 296°
2026-05-06 16:02 19.95262 68.49255 37835 ft 475 kts 296°
2026-05-06 16:03 19.98188 68.42955 37836 ft 475 kts 296°
2026-05-06 16:03 20.01109 68.36661 37835 ft 475 kts 296°
2026-05-06 16:04 20.04028 68.30363 37833 ft 475 kts 296°
2026-05-06 16:04 20.06943 68.24066 37840 ft 474 kts 295°
2026-05-06 16:05 20.09853 68.17776 37840 ft 474 kts 295°
2026-05-06 16:05 20.12761 68.11479 37841 ft 474 kts 295°
2026-05-06 16:06 20.15646 68.05227 37839 ft 474 kts 295°
2026-05-06 16:06 20.18547 67.98932 37838 ft 474 kts 295°
2026-05-06 16:07 20.21450 67.92627 37842 ft 474 kts 295°
2026-05-06 16:07 20.24351 67.86318 37841 ft 474 kts 295°
2026-05-06 16:08 20.27247 67.80012 37840 ft 475 kts 295°
2026-05-06 16:08 20.30147 67.73690 37842 ft 475 kts 295°
2026-05-06 16:09 20.33043 67.67370 37839 ft 475 kts 295°
2026-05-06 16:09 20.35940 67.61041 37841 ft 475 kts 295°
2026-05-06 16:10 20.38832 67.54715 37841 ft 475 kts 295°
2026-05-06 16:10 20.41724 67.48381 37841 ft 475 kts 295°
2026-05-06 16:11 20.44615 67.42042 37840 ft 475 kts 295°
2026-05-06 16:11 20.47501 67.35708 37840 ft 475 kts 295°
2026-05-06 16:12 20.50388 67.29364 37843 ft 475 kts 295°
2026-05-06 16:12 20.53270 67.23022 37843 ft 475 kts 295°
2026-05-06 16:13 20.56148 67.16683 37844 ft 475 kts 295°
2026-05-06 16:13 20.59025 67.10337 37845 ft 475 kts 295°
2026-05-06 16:14 20.61902 67.03985 37844 ft 475 kts 295°
2026-05-06 16:14 20.64772 66.97640 37844 ft 475 kts 295°
2026-05-06 16:15 20.67624 66.91328 37845 ft 475 kts 295°
2026-05-06 16:15 20.70513 66.84927 37846 ft 475 kts 295°
2026-05-06 16:16 20.73359 66.78613 37844 ft 475 kts 295°
2026-05-06 16:16 20.76224 66.72250 37845 ft 475 kts 295°
2026-05-06 16:17 20.79089 66.65879 37842 ft 476 kts 295°
2026-05-06 16:17 20.81951 66.59505 37844 ft 476 kts 295°
2026-05-06 16:18 20.84812 66.53129 37845 ft 476 kts 295°
2026-05-06 16:18 20.87671 66.46747 37843 ft 476 kts 295°
2026-05-06 16:19 20.90528 66.40363 37846 ft 476 kts 295°
2026-05-06 16:19 20.93381 66.33980 37843 ft 476 kts 295°
2026-05-06 16:20 20.96232 66.27594 37844 ft 476 kts 295°
2026-05-06 16:20 20.99079 66.21210 37847 ft 476 kts 295°
2026-05-06 16:21 21.01925 66.14818 37844 ft 476 kts 295°
2026-05-06 16:21 21.04767 66.08429 37843 ft 476 kts 295°
2026-05-06 16:22 21.07609 66.02031 37847 ft 476 kts 295°
2026-05-06 16:22 21.09967 65.96719 37848 ft 476 kts 295°
2026-05-06 16:23 21.12805 65.90315 37844 ft 476 kts 295°
2026-05-06 16:23 21.16102 65.82867 37846 ft 476 kts 295°
2026-05-06 16:24 21.18933 65.76463 37848 ft 476 kts 295°
2026-05-06 16:24 21.21307 65.71088 37841 ft 476 kts 295°
2026-05-06 16:25 21.24136 65.64673 37841 ft 476 kts 295°
2026-05-06 16:25 21.26962 65.58259 37843 ft 476 kts 295°
2026-05-06 16:26 21.29784 65.51845 37842 ft 476 kts 295°
2026-05-06 16:26 21.32605 65.45424 37839 ft 476 kts 295°
2026-05-06 16:27 21.35426 65.38998 37841 ft 476 kts 295°
2026-05-06 16:27 21.38244 65.32568 37840 ft 476 kts 295°
2026-05-06 16:28 21.41059 65.26138 37844 ft 476 kts 295°
2026-05-06 16:28 21.43871 65.19708 37844 ft 476 kts 294°
2026-05-06 16:29 21.46682 65.13271 37843 ft 476 kts 294°
2026-05-06 16:29 21.49471 65.06874 37841 ft 476 kts 294°
2026-05-06 16:30 21.51819 65.01485 37844 ft 476 kts 294°
2026-05-06 16:30 21.55076 64.93999 37836 ft 476 kts 294°
2026-05-06 16:31 21.57876 64.87555 37840 ft 475 kts 294°
2026-05-06 16:31 21.60669 64.81118 37839 ft 475 kts 294°
2026-05-06 16:32 21.63459 64.74681 37839 ft 475 kts 294°
2026-05-06 16:32 21.66245 64.68245 37838 ft 475 kts 294°
2026-05-06 16:33 21.69033 64.61794 37838 ft 475 kts 294°
2026-05-06 16:34 21.73207 64.52124 37839 ft 475 kts 294°
2026-05-06 16:34 21.75988 64.45668 37839 ft 476 kts 294°
2026-05-06 16:35 21.78767 64.39211 37841 ft 476 kts 294°
2026-05-06 16:35 21.81544 64.32749 37839 ft 476 kts 294°
2026-05-06 16:36 21.84323 64.26276 37840 ft 476 kts 294°
2026-05-06 16:36 21.87094 64.19810 37836 ft 476 kts 294°
2026-05-06 16:37 21.89866 64.13335 37836 ft 476 kts 294°
2026-05-06 16:37 21.92638 64.06853 37838 ft 476 kts 294°
2026-05-06 16:38 21.95404 64.00374 37838 ft 476 kts 294°
2026-05-06 16:38 21.98168 63.93894 37838 ft 476 kts 294°
2026-05-06 16:39 22.00927 63.87414 37837 ft 476 kts 294°
2026-05-06 16:39 22.03686 63.80928 37842 ft 476 kts 294°
2026-05-06 16:40 22.06424 63.74482 37838 ft 476 kts 294°
2026-05-06 16:40 22.09179 63.67989 37836 ft 476 kts 294°
2026-05-06 16:41 22.11928 63.61498 37841 ft 476 kts 294°
2026-05-06 16:41 22.14677 63.55002 37839 ft 476 kts 294°
2026-05-06 16:42 22.17424 63.48501 37836 ft 476 kts 294°
2026-05-06 16:42 22.20166 63.42000 37836 ft 476 kts 294°
2026-05-06 16:43 22.22905 63.35501 37834 ft 476 kts 294°
2026-05-06 16:43 22.25643 63.28997 37836 ft 476 kts 294°
2026-05-06 16:44 22.28374 63.22497 37832 ft 475 kts 294°
2026-05-06 16:44 22.31103 63.15995 37836 ft 475 kts 294°
2026-05-06 16:45 22.33829 63.09492 37837 ft 475 kts 294°
2026-05-06 16:45 22.36552 63.02986 37833 ft 475 kts 294°
2026-05-06 16:46 22.39271 62.96482 37834 ft 475 kts 294°
2026-05-06 16:46 22.41948 62.90072 37826 ft 463 kts 294°
2026-05-06 16:47 22.44582 62.83753 37829 ft 460 kts 294°
2026-05-06 16:47 22.47200 62.77466 37834 ft 458 kts 294°
2026-05-06 16:48 22.49812 62.71184 37828 ft 458 kts 293°
2026-05-06 16:48 22.52423 62.64896 37833 ft 458 kts 293°
2026-05-06 16:49 22.55035 62.58598 37829 ft 459 kts 293°
2026-05-06 16:49 22.57647 62.52291 37831 ft 460 kts 293°
2026-05-06 16:50 22.60246 62.46008 37833 ft 461 kts 293°
2026-05-06 16:50 22.62862 62.39676 37830 ft 461 kts 293°
2026-05-06 16:51 22.65477 62.33337 37824 ft 461 kts 293°
2026-05-06 16:51 22.68092 62.26988 37830 ft 461 kts 293°
2026-05-06 16:52 22.70704 62.20642 37825 ft 461 kts 293°
2026-05-06 16:52 22.73309 62.14301 37829 ft 460 kts 293°
2026-05-06 16:53 22.75908 62.07968 37828 ft 460 kts 293°
2026-05-06 16:53 22.78500 62.01642 37826 ft 459 kts 293°
2026-05-06 16:54 22.81088 61.95317 37829 ft 459 kts 293°
2026-05-06 16:54 22.83673 61.88994 37825 ft 459 kts 293°
2026-05-06 16:55 22.86253 61.82672 37827 ft 458 kts 293°
2026-05-06 16:55 22.88829 61.76351 37826 ft 458 kts 293°
2026-05-06 16:56 22.91403 61.70028 37822 ft 458 kts 293°
2026-05-06 16:56 22.93972 61.63708 37827 ft 458 kts 293°
2026-05-06 16:57 22.96540 61.57383 37826 ft 458 kts 293°
2026-05-06 16:57 22.99089 61.51095 37824 ft 458 kts 293°
2026-05-06 16:58 23.01649 61.44770 37820 ft 458 kts 293°
2026-05-06 16:58 23.04210 61.38438 37822 ft 458 kts 292°
2026-05-06 16:59 23.06764 61.32110 37819 ft 458 kts 292°
2026-05-06 16:59 23.09316 61.25781 37819 ft 458 kts 292°
2026-05-06 17:00 23.11867 61.19446 37816 ft 457 kts 292°
2026-05-06 17:00 23.14413 61.13114 37820 ft 457 kts 292°
2026-05-06 17:01 23.16956 61.06780 37820 ft 457 kts 292°
2026-05-06 17:01 23.19496 61.00447 37817 ft 457 kts 292°
2026-05-06 17:02 23.22030 60.94117 37814 ft 457 kts 292°
2026-05-06 17:02 23.24563 60.87782 37819 ft 457 kts 292°
2026-05-06 17:03 23.27091 60.81454 37820 ft 456 kts 292°